Regional Weather Roundup
Issued by NWS

Home | Current Version | Previous Version | Graphics & Text | Print | Product List | Glossary On
Versions: 1 2 3 4 5 6 7 8 9 10 11 12 13 14 15 16 17 18 19 20 21 22 23 24 25 26 27 28 29 30 31 32 33 34 35 36 37 38 39 40 41 42 43 44 45 46 47 48 49 50
634
ASUS43 KFSD 281802
RWRSD

WEATHER ROUNDUP FOR SOUTH DAKOTA
NATIONAL WEATHER SERVICE SIOUX FALLS SD
100 PM CDT THU JUL 28 2016

NOTE: "FAIR" INDICATES FEW OR NO CLOUDS BELOW 12,000 FEET WITH NO
SIGNIFICANT WEATHER AND/OR OBSTRUCTIONS TO VISIBILITY.


SDZ001>005-009-010-012>017-281900-
NORTHWEST AND NORTH CENTRAL SOUTH DAKOTA

CITY           SKY/WX    TMP DP  RH WIND       PRES   REMARKS
BUFFALO          N/A     71  62  73 VRB3      30.09F
FAITH            N/A     69  58  67 SW12      30.12S
MOBRIDGE       CLOUDY    74  54  49 E9        30.11S
$$

SDZ012>016-024>037-041>051-057-063-072>074-281900-
SOUTHWEST AND SOUTH CENTRAL SOUTH DAKOTA

CITY           SKY/WX    TMP DP  RH WIND       PRES   REMARKS
RAPID CTY ARPT CLOUDY    70  58  65 N6        30.12F
PIERRE         MOSUNNY   80  57  45 SE13      30.08F
CUSTER         CLOUDY    61  53  75 W12       30.25S
ELLSWORTH AFB  CLOUDY    69  62  78 N3        30.13F
PHILIP         CLOUDY    78  62  57 S10       30.07F
PINE RIDGE     CLOUDY    66  60  81 W9        30.15F
WINNER         FAIR      78  62  57 E7        30.10F
$$

SDZ004>011-016>023-039-040-281900-
NORTHEAST SOUTH DAKOTA

CITY           SKY/WX    TMP DP  RH WIND       PRES   REMARKS
ABERDEEN       PTSUNNY   74  63  68 S6        30.10S
WATERTOWN      SUNNY     76  57  51 E8        30.09R
BROOKINGS      MOSUNNY   71  61  70 N6        30.08S
SISSETON         N/A     76  61  59 NE5       30.08S
$$

SDZ017-020-022-023-036>040-048>070-281900-
SOUTHEAST SOUTH DAKOTA

CITY           SKY/WX    TMP DP  RH WIND       PRES   REMARKS
SIOUX FALLS    PTSUNNY   76  63  64 VRB5      30.06F
HURON          SUNNY     77  61  57 N9        30.07F
CHAMBERLAIN    MOSUNNY   80  60  51 SW3       30.09S
MITCHELL       SUNNY     79  59  50 N10       30.07F
YANKTON        MOSUNNY   79  55  44 NW10      30.05S
$$

ABBREVIATIONS USED IN REMARKS
   TC - TEMPERATURE IN CELSIUS
  WCI - WIND CHILL INDEX
   HX - HEAT INDEX
  VSB - VISIBILITY





USA.gov is the U.S. government's official web portal to all federal, state and local government web resources and services.